Overview Statistics Trail Chart Weather Telemetry Raw packets
 

This is the latest recevied weather packets stored in our database for station/object SR8WXL-13. If no packets are shown the sender has not sent any weather packets the latest 10 day(s).

<< 1 2 3 4 5 >>
Time Temp. Humidity Pressure Rain* Wind** Luminosity Snow
1788631551 15° C 73% 1032.2 hPa 0 mm - - -
1788630704 16.11° C 71% 1031.9 hPa 0 mm - - -
1788629907 17.22° C 67% 1032 hPa 0 mm - - -
1788629104 17.78° C 65% 1032 hPa 0 mm - - -
1788628204 17.78° C 61% 1031.8 hPa 0 mm - - -
1788627459 18.89° C 59% 1031.3 hPa 0 mm - - -
1788626594 18.89° C 57% 1031.6 hPa 0 mm - - -
1788625733 20° C 57% 1031.4 hPa 0 mm - - -
1788624893 20° C 56% 1031.1 hPa 0 mm - - -
1788624005 21.11° C 55% 1031.1 hPa 0 mm - - -
1788623115 21.11° C 54% 1031 hPa 0 mm - - -
1788622364 21.11° C 53% 1031 hPa 0 mm - - -
1788621596 22.22° C 55% 1030.9 hPa 0 mm - - -
1788620834 20° C 56% 1031 hPa 0 mm - - -
1788619999 21.11° C 55% 1031.1 hPa 0 mm - - -
1788619153 21.11° C 55% 1031 hPa 0 mm - - -
1788618268 21.11° C 55% 1030.9 hPa 0 mm - - -
1788617366 21.11° C 55% 1031 hPa 0 mm - - -
1788616568 22.22° C 52% 1031.1 hPa 0 mm - - -
1788615739 22.22° C 52% 1030.9 hPa 0 mm - - -
1788614840 22.22° C 51% 1030.9 hPa 0 mm - - -
1788614027 21.11° C 53% 1031.1 hPa 0 mm - - -
1788613125 22.22° C 51% 1031 hPa 0 mm - - -
1788612432 22.22° C 53% 1031 hPa 0 mm - - -
1788611678 21.11° C 55% 1031.2 hPa 0 mm - - -

* Rain latest hour (hover to see other rain measurements)
** Current wind speed in m/s (hover to see current wind gust speed)